sat.trackr.live / text

‹ back to catalog

COSMOS 2602

NORAD 67676 · 2026-023C

PAYLOAD ACTIVE UNKNOWN

§ Identity

Operator
Country
CIS
Launch date
2026-02-05
Launch site
PLMSC
Launch vehicle
Mass (kg)
RCS (m²)

External: N2YO · Heavens-Above · Gunter

§ Orbital elements

Epoch: 2026-05-25T03:36:24.904800Z

Period
94.45 min
Inclination
96.6304°
Eccentricity
0.0017774
Mean motion
15.24592961 rev/d
Perigee alt
479.8 km
Apogee alt
504.2 km
Semi-major
6,870.1 km
B*
4.7674e-4
RAAN
209.3486°
Arg perigee
204.6641°
Mean anomaly
155.3751°
Rev number
1,666

§ Raw data

COSMOS 26021 67676U 26023C   26145.15028825  .00011751  00000+0  47674-3 0  99992 67676  96.6304 209.3486 0017774 204.6641 155.3751 15.24592961 16663

JSON: /api/v1/satellites/67676 · /tle

For live sub-satellite position, see the globe view (requires WebGL).

§ Visibility from observer

Set your observer location to see the next 7 days of passes ≥ 10°. The values pass through the URL so the page stays shareable.

No JS? Fill the form by hand. The geolocation button needs JavaScript.